Regional Weather Roundup
Issued by NWS

Home | Current Version | Previous Version | Text Only | Print | Product List | Glossary On
Versions: 1 2 3 4 5 6 7 8 9 10 11 12 13 14 15 16 17 18 19 20 21 22 23 24 25 26 27
000
ASUS46 KSEW 232310
RWRWA

WASHINGTON REGIONAL WEATHER ROUNDUP
NATIONAL WEATHER SERVICE SEATTLE WA
400 PM PDT SUN APR 23 2017

NOTE:"FAIR" INDICATES FEW OR NO CLOUDS BELOW 12,000 FEET WITH NO
SIGNIFICANT WEATHER AND/OR OBSTRUCTIONS TO VISIBILITY.

WAZ507-509-555>559-240000-
SEATTLE, TACOMA, EVERETT, AND VICINITY

CITY           SKY/WX    TMP DP  RH WIND       PRES   REMARKS
EVERETT        CLOUDY    51  45  79 SE10G24   29.82F
BOEING FIELD   LGT RAIN  51  49  92 S14       29.85S FOG
RENTON         LGT RAIN  52  49  89 S9        29.85S FOG
SEATAC AIRPORT LGT RAIN  50  46  86 S14       29.85S
JBLM-MCCHORD   LGT RAIN  50  50 100 S9        29.86R
PUYALLUP       DRIZZLE   48  48 100 SW5       29.86S
BREMERTON      NOT AVBL
JBLM-FT LEWIS  LGT RAIN  50  45  83 SW6       29.88F
TACOMA NARROWS LGT RAIN  49  47  93 S10       29.85S
$$

WAZ001-503-506-510-514-515-240000-
NORTH INTERIOR

CITY           SKY/WX    TMP DP  RH WIND       PRES   REMARKS
BELLINGHAM     LGT RAIN  53  45  74 SE13G20   29.80F
FRIDAY HARBOR  CLOUDY    53  46  77 SE13G20   29.79F
EASTSOUND      CLOUDY    54  45  71 S9        29.77F
PORT ANGELES   PTSUNNY   53  46  77 NW12G20   29.77S
EDIZ HOOK      FAIR      52  47  82 NW13      29.77S
PORT TOWNSEND  NOT AVBL
NAS WHIDBEY    LGT RAIN  54  43  66 SE16G28   29.83F
ARLINGTON      CLOUDY    52  41  66 SE12      29.85F
BURLINGTON     MOSUNNY   52  45  76 SE10G17   29.82F
$$

WAZ020-022-039-040-504-511-512-240000-
SOUTHWEST INTERIOR

CITY           SKY/WX    TMP DP  RH WIND       PRES   REMARKS
SHELTON        LGT RAIN  50  46  86 SW13      29.83S
OLYMPIA        RAIN      50  48  93 SW7       29.85F
CHEHALIS       PTSUNNY   54  45  71 SW8       29.86S
KELSO          CLOUDY    53  46  77 CALM      29.89S
VANCOUVER      CLOUDY    54  46  74 SW8       29.90F
SCAPPOOSE, OR  CLOUDY    53  45  74 W5        29.89S
PORTLAND, OR   CLOUDY    54  46  74 SW13      29.90F
$$

WAZ021-516-517-240000-
WASHINGTON COAST

CITY           SKY/WX    TMP DP  RH WIND       PRES   REMARKS
FORKS          LGT RAIN  48  47  96 VRB7      29.79S
HOQUIAM        LGT RAIN  50  49  96 S15       29.84S FOG
ASTORIA, OR    LGT RAIN  50  46  86 SW13G22   29.87S
$$

WAZ019-023-024-040-567>569-240000-
CASCADE MOUNTAINS AND COLUMBIA GORGE

CITY           SKY/WX    TMP DP  RH WIND       PRES   REMARKS
STAMPEDE PASS  LGT RAIN  39  36  89 CALM      29.79F
TROUTDALE, OR  CLOUDY    55  47  74 SW9       29.91R
THE DALLES, OR CLOUDY    56  45  66 NW15G26   29.86S
$$

WAZ026-027-041>044-520-521-240000-
EAST SLOPES

CITY           SKY/WX    TMP DP  RH WIND       PRES   REMARKS
OMAK           CLOUDY    60  33  36 SW12      29.74F
WENATCHEE      CLOUDY    58  34  40 SW9       29.76F
ELLENSBURG     CLOUDY    56  41  57 N7        29.79F
YAKIMA         CLOUDY    60  39  45 S20G26    29.79F
SUNNYSIDE ARPT CLOUDY    57  40  51 W17G24    29.80F
$$

WAZ028-034-035-240000-
COLUMBIA BASIN

CITY           SKY/WX    TMP DP  RH WIND       PRES   REMARKS
EPHRATA        CLOUDY    60  31  33 SW15G22   29.76F
MOSES LAKE     CLOUDY    61  33  35 SW9       29.77F
PASCO          CLOUDY    66  36  32 W14       29.79F
HERMISTON, OR  CLOUDY    64  40  41 W7        29.79F
$$

WAZ036>038-240000-
NORTHEAST WASHINGTON

CITY           SKY/WX    TMP DP  RH WIND       PRES   REMARKS
SPOKANE GEIGER CLOUDY    56  37  49 SW15G22   29.78F
SPOKANE FELTS  CLOUDY    57  35  43 W15G24    29.78F
FAIRCHILD AFB  CLOUDY    55  35  47 SW20      29.77F
COEURDALENE,ID CLOUDY    56  35  45 SW17      29.78F
DEER PARK      CLOUDY    56  32  40 SW16G24   29.77F
$$

WAZ029>033-240000-
SOUTHEAST WASHINGTON

CITY           SKY/WX    TMP DP  RH WIND       PRES   REMARKS
PULLMAN        PTSUNNY   53  40  61 SW6       29.83F
LEWISTON, ID   PTSUNNY   57  42  57 SE6       29.81F
WALLA WALLA    PTSUNNY   63  39  41 SW13      29.81F
PENDLETON, OR  CLOUDY    58  44  60 S9        29.81F
$$




USA.gov is the U.S. government's official web portal to all federal, state and local government web resources and services.